TIANTONG-1 1 (41725 NORAD) Tracking and Keplerian Element Data

This shows tracking and keplerian element data for the satellite.

Feedback or suggestion? Click here.




ElementValue
Catalog41725
NameTIANTONG-1 1
Epoch Orbit946
Epoch Day51.88751491
Epoch Year2019
RAAN327.9474
Inclination3.6896
Eccentricity0.0007017
Argument of Perigee22.0007
Mean Anonmoly221.4532
Mean Motion1.00271018
Decay Rate-3.37E-06
L11 41725U 16048A 19051.88751491 -.00000337 00000-0 00000-0 0 9991
L22 41725 3.6896 327.9474 0007017 22.0007 221.4532 1.00271018 9463

Live tracking and technical data element details for TIANTONG-1 1 (NORAD 41725). TIANTONG-1 1 can be tracked NOW for your location showing map with azimuth and elevation plus other details from your city location.

Track the satellite on the map from your city or location and see movement details for azimuth, elevation, latitude, longitude, range, height, and movement on the map or in text.







IsCatalogInMostPopularTable: catalog: 41725, numindb: 297
Update: records affected: 1



GetName: 41725 TIANTONG-1 1

Hit Count: updated at: Fri, 22 Feb 2019 22:52:42 GMT